Location: Kernascl�den
(48.0062°N, 3.3198°W)
Time: 17:06:01
(UTC+00:00)

USA 267 - Pass Details

Date: 21 January 2021
Orbit: 1102 x 1106 km, 123.0° (Epoch: 22 February)

Event Time Altitude Azimuth Distance (km) Brightness Sun altitude
Exits shadow 19:07:18 30° 119° (ESE) 1,858 4.0 -21.5°
Maximum altitude 19:07:52 31° 128° (SE) 1,842 4.1 -21.6°
Drops below altitude 10° 19:13:29 10° 188° (S) 2,953 5.7 -22.6°
Sets 19:16:18 0° 199° (SSW) 3,908 6.5 -23.0°
